sat.trackr.live / text

‹ back to catalog

UNKNOWN

NORAD 81824

UNKNOWN UNKNOWN UNKNOWN

§ Identity

Operator
Country
Launch date
Launch site
Launch vehicle
Mass (kg)
RCS (m²)

External: N2YO · Heavens-Above

§ Orbital elements

Epoch: 2026-09-18T12:09:05.364576Z

Period
100.15 min
Inclination
65.8414°
Eccentricity
0.0043263
Mean motion
14.37843420 rev/d
Perigee alt
734.7 km
Apogee alt
796.5 km
Semi-major
7,143.8 km
B*
9.2626e-4
RAAN
291.6652°
Arg perigee
203.2367°
Mean anomaly
156.6773°
Rev number
66,478

§ Raw data

UNKNOWN1 81824U          26261.50631209  .00002735  00000+0  92626-3 0  99902 81824  65.8414 291.6652 0043263 203.2367 156.6773 14.37843420664787

JSON: /api/v1/satellites/81824 · /tle

For live sub-satellite position, see the globe view (requires WebGL).

§ Visibility from observer

Set your observer location to see the next 7 days of passes ≥ 10°. The values pass through the URL so the page stays shareable.

No JS? Fill the form by hand. The geolocation button needs JavaScript.